Content
SEND FEEDBACK

Daily
Averages
Monthly
Summary
United States of America

NEW YORK, NEW YORK


Home > North America > United States > New York
Elevation: 131 feet     Latitude: 40 47N     Longitude: 073 58W

WEATHER
 
SELECT A DAY
Number of Records: 150,506;   Date Range: 11/1/95 - 9/29/14
 
SHARE

PRINT THIS DATA

[ ← Previous Day ]
WEATHER ALMANAC - JANUARY 1, 2013
[ Next Day → ]
[ °C ]   °F
Weather ElementAverageHighLow
Temperature35.9 °F39 °F (2:51 am)26.1 °F (11:51 pm)
Dewpoint21.5 °F27 °F (2:51 am)9 °F (10:51 pm)
Humidity56.4 %65 % (7:51 am)46 % (5:51 pm)
Barometer29.90 in30.01 in (10:51 pm)29.84 in (1:51 pm)
Wind Speed6.9 mph11.5 mph (9:51 pm)
Wind Gust21.9 mph (12:51 pm)
Weather ElementAverage
Visibility10 mi
Wind DirectionESE (111.7 °)

Weather ElementTotal
Precipitation---
Heating Degree Days32.5 (Base 65)
Averaged from 23 records on January 1, 2013
WEATHER CONDITIONS BREAKOUT
WIND DIRECTION BREAKOUT
WEATHER BY HOUR - JANUARY 1, 2013
[ °C ]   °F
Local TimeTemperatureDewpointHumidityBarometerVisibilityWind DirectionWind SpeedGust SpeedPrecipitationEventsConditions
1:51 AM37.9 °F26.1 °F62 %29.88 in10.0 miVariable3.5 mph17.3 mphOvercast
2:51 AM39.0 °F27.0 °F62 %29.88 in10.0 miVariable6.9 mphOvercast
3:51 AM39.0 °F27.0 °F62 %29.88 in10.0 miWest (260°)9.2 mphOvercast
4:51 AM39.0 °F27.0 °F62 %29.88 in10.0 miVariable6.9 mphOvercast
5:51 AM39.0 °F26.1 °F60 %29.86 in10.0 miVariable6.9 mph20.7 mphOvercast
6:51 AM39.0 °F26.1 °F60 %29.88 in10.0 miWest (260°)10.4 mph20.7 mphOvercast
7:51 AM37.9 °F27.0 °F65 %29.88 in10.0 miWest (260°)6.9 mphOvercast
8:51 AM39.0 °F27.0 °F62 %29.88 in10.0 miVariable6.9 mph20.7 mphOvercast
9:51 AM39.0 °F27.0 °F62 %29.89 in10.0 miWest (260°)10.4 mph17.3 mphPartly Cloudy
10:51 AM39.0 °F27.0 °F62 %29.88 in10.0 miVariable5.8 mphOvercast
11:51 AM39.0 °F26.1 °F60 %29.86 in10.0 miVariable4.6 mph16.1 mphOvercast
12:51 PM37.0 °F25.0 °F62 %29.86 in10.0 miWNW (300°)9.2 mph21.9 mphOvercast
1:51 PM37.0 °F25.0 °F62 %29.84 in10.0 miCalmOvercast
2:51 PM37.9 °F24.1 °F57 %29.84 in10.0 miVariable6.9 mphMostly Cloudy
3:51 PM37.9 °F21.0 °F51 %29.87 in10.0 miVariable6.9 mphScattered Clouds
4:51 PM36.0 °F18.0 °F48 %29.88 in10.0 miNW (310°)10.4 mph20.7 mphClear
5:51 PM35.1 °F16.0 °F46 %29.92 in10.0 miVariable4.6 mphClear
6:51 PM33.1 °F15.1 °F48 %29.94 in10.0 miNW (310°)5.8 mphClear
7:51 PM32.0 °F14.0 °F48 %29.95 in10.0 miVariable4.6 mphClear
8:51 PM30.0 °F12.9 °F49 %29.97 in10.0 miVariable6.9 mphClear
9:51 PM28.9 °F12.0 °F49 %29.99 in10.0 miNW (310°)11.5 mph21.9 mphClear
10:51 PM27.0 °F9.0 °F47 %30.01 in10.0 miNorthClear
11:51 PM26.1 °F10.0 °F51 %30.01 in10.0 miWNW (300°)5.8 mphClear
Hourly data recorded from KNYC, located miles away from New York, New York







STORIES FROM OUR PARTNERS